Andrews AFB, MD

11:24 PM EDT on April 21, 2018 (GMT -0400)
Andrews Air Force Base-Naf

Weather History for KADW - April, 2013

Change the Weather History Date:

Friday, April 5, 2013

  Actual Average Record
Temperature  
Mean Temperature 50 °F -  
Max Temperature 63 °F 59 °F 72 °F (2011)
Min Temperature 36 °F 39 °F 28 °F (2016)
Degree Days  
Heating Degree Days 16    
Moisture  
Dew Point 33 °F    
Average Humidity 77    
Maximum Humidity 100    
Minimum Humidity 24    
Precipitation  
Precipitation 0.16 in - - ()
Sea Level Pressure  
Sea Level Pressure 29.96 in    
Wind  
Wind Speed 6 mph (North)    
Max Wind Speed 17 mph    
Max Gust Speed 28 mph    
Visibility 10 miles    
Events Rain    
Averages and records for this station are not official NWS values.
T = Trace of Precipitation, MM = Missing Value Source: NWS Daily Summary

Daily Weather History Graph

Daily Weather History Graph

Search for Another Location

Airport or City:

Astronomy

Apr. 05, 2013 Rise Set
Actual Time 6:45 AM EDT 7:35 PM EDT
Civil Twilight 6:18 AM EDT 8:02 PM EDT
Nautical Twilight 5:46 AM EDT 8:34 PM EDT
Astronomical Twilight 5:13 AM EDT 9:07 PM EDT
Moon 3:48 AM EDT (4/5) 2:59 PM EDT (4/5)
Length of Visible Light 13h 43m
Length of Day
12h 49m
Waning Crescent, 24% of the Moon is Illuminated
Apr 5
Waning Crescent
Apr 10
New
Apr 18
First Quarter
Apr 25
Full
May 2
Last Quarter

Hourly Weather History & Observations

Time (EDT) Temp. Windchill Dew Point Humidity Pressure Visibility Wind Dir Wind Speed Gust Speed Precip Events Conditions
12:26 AM 37.4 °F 32.8 °F 35.6 °F 93% 30.09 in 9.0 mi SSE 5.8 mph - N/A Rain Light Rain
12:34 AM 37.4 °F 32.8 °F 35.6 °F 93% 30.09 in 10.0 mi SSE 5.8 mph - N/A Rain Light Rain
12:46 AM 37.4 °F 32.8 °F 35.6 °F 93% 30.08 in 10.0 mi SSE 5.8 mph - N/A Rain Light Rain
12:48 AM 37.4 °F 33.8 °F 35.6 °F 93% 30.07 in 10.0 mi SE 4.6 mph - N/A Rain Light Rain
12:54 AM 37.4 °F 32.8 °F 35.6 °F 93% 30.06 in 10.0 mi SSE 5.8 mph - N/A Rain Light Rain
1:14 AM 37.4 °F 34.9 °F 35.6 °F 93% 30.05 in 10.0 mi East 3.5 mph - N/A Rain Light Rain
1:53 AM 37.4 °F 33.8 °F 35.6 °F 93% 30.02 in 10.0 mi ENE 4.6 mph - N/A Rain Light Rain
1:55 AM 36.9 °F 34.3 °F 36.0 °F 97% 30.02 in 10.0 mi ENE 3.5 mph - 0.03 in Rain Light Rain
1:56 AM 37.4 °F 34.9 °F 35.6 °F 93% 30.02 in 10.0 mi ENE 3.5 mph - N/A Rain Light Rain
2:14 AM 37.4 °F 34.9 °F 35.6 °F 93% 30.01 in 9.0 mi East 3.5 mph - N/A Rain Light Rain
2:38 AM 37.4 °F 34.9 °F 35.6 °F 93% 29.99 in 9.0 mi NE 3.5 mph - N/A Rain Light Rain
2:55 AM 36.9 °F 32.2 °F 36.3 °F 98% 29.98 in 8.0 mi NE 5.8 mph - 0.07 in Rain Rain
3:24 AM 37.4 °F 33.8 °F 35.6 °F 93% 29.98 in 7.0 mi NE 4.6 mph - N/A Rain Rain
3:46 AM 37.4 °F 34.9 °F 35.6 °F 93% 29.97 in 7.0 mi NNE 3.5 mph - N/A Rain Rain
3:52 AM 37.4 °F 33.8 °F 35.6 °F 93% 29.97 in 8.0 mi NNE 4.6 mph - N/A Rain Light Rain
3:54 AM 37.4 °F 33.8 °F 35.6 °F 93% 29.97 in 9.0 mi NE 4.6 mph - N/A Rain Light Rain
4:21 AM 37.4 °F 32.8 °F 35.6 °F 93% 29.96 in 10.0 mi North 5.8 mph - N/A Rain Light Rain
4:34 AM 37.4 °F 32.1 °F 35.6 °F 93% 29.96 in 8.0 mi North 6.9 mph - N/A Rain Light Rain
4:36 AM 37.4 °F 32.8 °F 35.6 °F 93% 29.96 in 8.0 mi North 5.8 mph - N/A Rain Light Rain
4:39 AM 37.4 °F 32.1 °F 37.4 °F 100% 29.96 in 8.0 mi North 6.9 mph - N/A Rain Light Rain
4:49 AM 37.4 °F 33.8 °F 37.4 °F 100% 29.96 in 9.0 mi NNE 4.6 mph - N/A Rain Light Rain
4:51 AM 37.4 °F 32.8 °F 37.4 °F 100% 29.96 in 9.0 mi NNE 5.8 mph - N/A Rain Light Rain
4:55 AM 37.2 °F 32.6 °F 36.7 °F 98% 29.96 in 9.0 mi NNE 5.8 mph - 0.04 in Rain Light Rain
4:56 AM 37.4 °F 32.8 °F 37.4 °F 100% 29.96 in 9.0 mi NNE 5.8 mph - N/A Rain Light Rain
5:28 AM 37.4 °F 33.8 °F 37.4 °F 100% 29.95 in 10.0 mi NE 4.6 mph - N/A Rain Light Rain
5:49 AM 37.4 °F 34.9 °F 37.4 °F 100% 29.95 in 10.0 mi North 3.5 mph - N/A   Overcast
5:55 AM 37.4 °F 34.9 °F 36.7 °F 97% 29.94 in 10.0 mi NE 3.5 mph - 0.02 in   Overcast
6:26 AM 37.4 °F 33.8 °F 37.4 °F 100% 29.94 in 10.0 mi NNW 4.6 mph - N/A Rain Light Rain
6:55 AM 37.9 °F 32.1 °F 36.9 °F 96% 29.95 in 10.0 mi NNW 8.1 mph - 0.00 in   Mostly Cloudy
7:25 AM 37.4 °F 31.4 °F 37.4 °F 100% 29.94 in 10.0 mi NNW 8.1 mph - N/A   Mostly Cloudy
7:55 AM 38.5 °F 32.7 °F 37.6 °F 97% 29.94 in 10.0 mi NNW 8.1 mph - N/A   Mostly Cloudy
7:56 AM 39.2 °F 34.2 °F 37.4 °F 93% 29.94 in 9.0 mi NNW 6.9 mph - N/A   Mostly Cloudy
8:16 AM 39.2 °F 34.2 °F 39.2 °F 100% 29.95 in 9.0 mi NNW 6.9 mph - N/A   Overcast
8:55 AM 40.6 °F 36.0 °F 38.1 °F 91% 29.94 in 10.0 mi NNW 6.9 mph - N/A   Mostly Cloudy
9:55 AM 44.4 °F 42.0 °F 39.0 °F 81% 29.93 in 10.0 mi NNW 4.6 mph - N/A   Partly Cloudy
10:55 AM 49.3 °F - 36.5 °F 61% 29.92 in 10.0 mi NW 9.2 mph - N/A   Clear
11:55 AM 54.3 °F - 30.6 °F 40% 29.91 in 10.0 mi NNW 13.8 mph - N/A   Clear
12:55 PM 56.8 °F - 28.9 °F 34% 29.88 in 10.0 mi NW 12.7 mph 27.6 mph N/A   Clear
1:55 PM 59.4 °F - 25.5 °F 27% 29.86 in 10.0 mi NNW 12.7 mph 23.0 mph N/A   Clear
2:55 PM 61.2 °F - 23.9 °F 24% 29.84 in 10.0 mi NW 13.8 mph - N/A   Clear
3:55 PM 62.2 °F - 25.5 °F 25% 29.83 in 10.0 mi WNW 6.9 mph 18.4 mph N/A   Clear
4:55 PM 63.0 °F - 25.7 °F 24% 29.84 in 10.0 mi WNW 11.5 mph - N/A   Clear
5:55 PM 63.1 °F - 26.1 °F 25% 29.84 in 10.0 mi NW 17.3 mph - N/A   Clear
6:55 PM 61.2 °F - 25.3 °F 26% 29.88 in 10.0 mi NW 15.0 mph - N/A   Clear
7:55 PM 58.8 °F - 25.3 °F 28% 29.91 in 10.0 mi NNW 12.7 mph - N/A   Clear
8:55 PM 56.7 °F - 24.3 °F 29% 29.96 in 10.0 mi NW 12.7 mph - N/A   Clear
9:55 PM 54.9 °F - 22.5 °F 28% 30.00 in 10.0 mi NW 12.7 mph - N/A   Clear
10:55 PM 53.1 °F - 19.9 °F 27% 30.02 in 10.0 mi NNW 16.1 mph 21.9 mph N/A   Clear
11:55 PM 50.9 °F - 19.9 °F 30% 30.04 in 10.0 mi NNW 15.0 mph - N/A   Clear